EN

Hourly Weather Kyusyur

Today, 24 July, Saturday

Time Temperature Precipitation Wind Pressure Humidity
00:00 +16°C° 0.6 mm 1 mps 748 mmHg 84%
01:00 +15°C° 0.6 mm 1 mps 748 mmHg 85%
02:00 +15°C° 0 mm 1 mps 748 mmHg 85%
03:00 +16°C° 0 mm 1 mps 748 mmHg 81%
04:00 +18°C° 0 mm 1 mps 748 mmHg 77%
05:00 +19°C° 0 mm 1 mps 748 mmHg 73%
06:00 +18°C° 0 mm 0 mps 748 mmHg 70%
07:00 +19°C° 0 mm 0 mps 748 mmHg 66%
08:00 +20°C° 0 mm 0 mps 748 mmHg 63%
09:00 +22°C° 0.4 mm 1 mps 748 mmHg 61%
10:00 +22°C° 0.4 mm 1 mps 747 mmHg 59%
11:00 +23°C° 0.4 mm 1 mps 747 mmHg 57%
12:00 +24°C° 0.1 mm 1 mps 747 mmHg 52%
13:00 +24°C° 0.1 mm 1 mps 747 mmHg 46%
14:00 +25°C° 0.1 mm 1 mps 747 mmHg 41%
15:00 +24°C° 0.1 mm 2 mps 747 mmHg 48%
16:00 +22°C° 0.1 mm 3 mps 747 mmHg 55%
17:00 +20°C° 0.1 mm 5 mps 747 mmHg 62%
18:00 +20°C° 0.4 mm 3 mps 748 mmHg 66%
19:00 +19°C° 0.4 mm 2 mps 748 mmHg 70%
20:00 +19°C° 0.4 mm 1 mps 748 mmHg 74%
21:00 +18°C° 0 mm 1 mps 748 mmHg 75%
22:00 +16°C° 0 mm 1 mps 748 mmHg 77%
23:00 +15°C° 0 mm 2 mps 748 mmHg 79%

Tomorrow, 25 July, Sunday

Time Temperature Precipitation Wind Pressure Humidity
00:00 +15°C° 0 mm 2 mps 748 mmHg 79%
01:00 +14°C° 0 mm 2 mps 749 mmHg 79%
02:00 +14°C° 0 mm 2 mps 749 mmHg 78%
03:00 +15°C° 0 mm 2 mps 749 mmHg 75%
04:00 +15°C° 0 mm 2 mps 749 mmHg 71%
05:00 +16°C° 0 mm 2 mps 749 mmHg 68%
06:00 +17°C° 0 mm 2 mps 749 mmHg 65%
07:00 +19°C° 0 mm 1 mps 749 mmHg 61%
08:00 +20°C° 0 mm 1 mps 749 mmHg 58%
09:00 +21°C° 0 mm 1 mps 749 mmHg 55%
10:00 +22°C° 0 mm 1 mps 749 mmHg 52%
11:00 +23°C° 0 mm 1 mps 749 mmHg 49%
12:00 +23°C° 0 mm 1 mps 749 mmHg 48%
13:00 +24°C° 0 mm 1 mps 749 mmHg 46%
14:00 +24°C° 0 mm 1 mps 748 mmHg 45%
15:00 +24°C° 0 mm 1 mps 748 mmHg 48%
16:00 +23°C° 0 mm 1 mps 749 mmHg 51%
17:00 +22°C° 0 mm 1 mps 749 mmHg 55%
18:00 +22°C° 0 mm 1 mps 749 mmHg 56%
19:00 +21°C° 0 mm 1 mps 749 mmHg 58%
20:00 +21°C° 0 mm 1 mps 749 mmHg 59%
21:00 +20°C° 0 mm 1 mps 749 mmHg 61%
22:00 +19°C° 0 mm 1 mps 749 mmHg 63%
23:00 +18°C° 0 mm 1 mps 749 mmHg 65%

Day after tomorrow, 26 July, Monday

Time Temperature Precipitation Wind Pressure Humidity
00:00 +18°C° 0 mm 1 mps 749 mmHg 64%
01:00 +17°C° 0 mm 2 mps 749 mmHg 64%
02:00 +17°C° 0 mm 2 mps 749 mmHg 63%
03:00 +17°C° 0 mm 2 mps 749 mmHg 62%
04:00 +18°C° 0 mm 2 mps 749 mmHg 61%
05:00 +18°C° 0 mm 2 mps 748 mmHg 60%
06:00 +19°C° 0 mm 3 mps 749 mmHg 57%
07:00 +20°C° 0 mm 3 mps 749 mmHg 54%
08:00 +21°C° 0 mm 4 mps 749 mmHg 51%
09:00 +22°C° 0 mm 4 mps 748 mmHg 46%
10:00 +23°C° 0 mm 4 mps 748 mmHg 42%
11:00 +23°C° 0 mm 4 mps 748 mmHg 37%
12:00 +23°C° 0 mm 5 mps 748 mmHg 39%
13:00 +23°C° 0 mm 5 mps 748 mmHg 40%
14:00 +23°C° 0 mm 6 mps 748 mmHg 42%
15:00 +22°C° 0 mm 5 mps 748 mmHg 46%
16:00 +21°C° 0 mm 5 mps 748 mmHg 51%
17:00 +20°C° 0 mm 4 mps 748 mmHg 55%
18:00 +19°C° 0.1 mm 4 mps 748 mmHg 57%
19:00 +18°C° 0.1 mm 4 mps 748 mmHg 60%
20:00 +17°C° 0.1 mm 4 mps 748 mmHg 62%
21:00 +15°C° 0 mm 4 mps 749 mmHg 65%
22:00 +14°C° 0 mm 4 mps 749 mmHg 68%
23:00 +12°C° 0 mm 4 mps 749 mmHg 72%

27 July, Tuesday

Time Temperature Precipitation Wind Pressure Humidity
00:00 +12°C° 0 mm 3 mps 750 mmHg 76%
01:00 +11°C° 0 mm 3 mps 750 mmHg 80%
02:00 +10°C° 0 mm 3 mps 750 mmHg 85%
03:00 +10°C° 0 mm 3 mps 750 mmHg 82%
04:00 +11°C° 0 mm 3 mps 751 mmHg 80%
05:00 +11°C° 0 mm 4 mps 751 mmHg 78%
06:00 +11°C° 0 mm 4 mps 752 mmHg 74%
07:00 +10°C° 0 mm 5 mps 752 mmHg 71%
08:00 +10°C° 0 mm 5 mps 752 mmHg 68%
09:00 +11°C° 0 mm 6 mps 752 mmHg 62%
10:00 +12°C° 0 mm 7 mps 753 mmHg 56%
11:00 +13°C° 0 mm 9 mps 753 mmHg 50%
12:00 +13°C° 0 mm 9 mps 753 mmHg 48%
13:00 +13°C° 0 mm 9 mps 753 mmHg 46%
14:00 +13°C° 0 mm 9 mps 754 mmHg 44%
15:00 +12°C° 0 mm 9 mps 754 mmHg 45%
16:00 +12°C° 0 mm 9 mps 754 mmHg 45%
17:00 +11°C° 0 mm 10 mps 755 mmHg 45%
18:00 +10°C° 0 mm 9 mps 755 mmHg 50%
19:00 +8°C° 0 mm 9 mps 755 mmHg 55%
20:00 +7°C° 0 mm 8 mps 756 mmHg 60%
21:00 +6°C° 0 mm 8 mps 756 mmHg 63%
22:00 +5°C° 0 mm 8 mps 756 mmHg 66%
23:00 +4°C° 0 mm 7 mps 756 mmHg 68%

28 July, Wednesday

Time Temperature Precipitation Wind Pressure Humidity
00:00 +4°C° 0 mm 7 mps 756 mmHg 69%
01:00 +4°C° 0 mm 7 mps 756 mmHg 70%
02:00 +3°C° 0 mm 6 mps 756 mmHg 71%
03:00 +4°C° 0 mm 7 mps 756 mmHg 69%
04:00 +5°C° 0 mm 8 mps 756 mmHg 67%
05:00 +6°C° 0 mm 8 mps 756 mmHg 64%
06:00 +7°C° 0 mm 9 mps 756 mmHg 60%
07:00 +8°C° 0 mm 10 mps 756 mmHg 56%
08:00 +9°C° 0 mm 11 mps 756 mmHg 51%
09:00 +11°C° 0 mm 11 mps 756 mmHg 49%
10:00 +12°C° 0 mm 10 mps 756 mmHg 47%
11:00 +13°C° 0 mm 10 mps 756 mmHg 45%
12:00 +13°C° 0 mm 10 mps 756 mmHg 45%
13:00 +14°C° 0 mm 10 mps 756 mmHg 44%
14:00 +14°C° 0 mm 10 mps 756 mmHg 44%
15:00 +14°C° 0 mm 10 mps 756 mmHg 45%
16:00 +13°C° 0 mm 10 mps 756 mmHg 46%
17:00 +12°C° 0 mm 10 mps 756 mmHg 46%
18:00 +11°C° 0 mm 9 mps 757 mmHg 50%
19:00 +8°C° 0 mm 9 mps 757 mmHg 53%
20:00 +7°C° 0 mm 8 mps 757 mmHg 56%
21:00 +6°C° 0 mm 7 mps 757 mmHg 60%
22:00 +5°C° 0 mm 7 mps 757 mmHg 64%
23:00 +4°C° 0 mm 6 mps 757 mmHg 68%

29 July, Thursday

Time Temperature Precipitation Wind Pressure Humidity
00:00 +4°C° 0 mm 6 mps 757 mmHg 70%
01:00 +3°C° 0 mm 6 mps 757 mmHg 71%
02:00 +3°C° 0 mm 5 mps 757 mmHg 73%
03:00 +3°C° 0 mm 6 mps 757 mmHg 70%
04:00 +4°C° 0 mm 7 mps 757 mmHg 68%
05:00 +4°C° 0 mm 8 mps 757 mmHg 65%
06:00 +5°C° 0 mm 9 mps 757 mmHg 62%
07:00 +6°C° 0 mm 10 mps 757 mmHg 59%
08:00 +7°C° 0 mm 11 mps 757 mmHg 56%
09:00 +8°C° 0 mm 10 mps 757 mmHg 54%
10:00 +9°C° 0 mm 10 mps 757 mmHg 52%
11:00 +11°C° 0 mm 10 mps 757 mmHg 50%
12:00 +11°C° 0 mm 10 mps 757 mmHg 48%
13:00 +12°C° 0 mm 10 mps 757 mmHg 47%
14:00 +13°C° 0 mm 10 mps 756 mmHg 46%
15:00 +12°C° 0 mm 10 mps 757 mmHg 47%
16:00 +12°C° 0 mm 10 mps 757 mmHg 48%
17:00 +12°C° 0 mm 10 mps 757 mmHg 49%
18:00 +11°C° 0 mm 9 mps 757 mmHg 53%
19:00 +8°C° 0 mm 9 mps 757 mmHg 57%
20:00 +7°C° 0 mm 8 mps 757 mmHg 61%
21:00 +6°C° 0 mm 7 mps 758 mmHg 64%
22:00 +5°C° 0 mm 6 mps 758 mmHg 68%
23:00 +5°C° 0 mm 5 mps 758 mmHg 71%
Show more